Year,Month,Day,Hour,Minute,Value (Times are PST for temperature in C)
2013,03,31,00,02,9.40
2013,03,31,00,04,9.50
2013,03,31,00,05,9.50
2013,03,31,00,06,9.50
2013,03,31,00,07,9.50
2013,03,31,00,09,9.50
2013,03,31,00,10,9.40
2013,03,31,00,11,9.40
2013,03,31,00,12,9.40
2013,03,31,00,13,9.40
2013,03,31,00,14,9.40
2013,03,31,00,15,9.40
2013,03,31,00,16,9.40
2013,03,31,00,17,9.40
2013,03,31,00,19,9.40
2013,03,31,00,20,9.40
2013,03,31,00,21,9.40
2013,03,31,00,22,9.40
2013,03,31,00,24,9.30
2013,03,31,00,25,9.30
2013,03,31,00,26,9.30
2013,03,31,00,28,9.40
2013,03,31,00,29,9.30
2013,03,31,00,30,9.20
2013,03,31,00,31,9.10
2013,03,31,00,32,9.00
2013,03,31,00,33,8.90
2013,03,31,00,34,8.90
2013,03,31,00,35,8.80
2013,03,31,00,36,8.80
2013,03,31,00,37,8.70
2013,03,31,00,38,8.70
2013,03,31,00,39,8.70
2013,03,31,00,40,8.70
2013,03,31,00,41,8.60
2013,03,31,00,42,8.60
2013,03,31,00,43,8.60
2013,03,31,00,44,8.60
2013,03,31,00,45,8.60
2013,03,31,00,47,8.60
2013,03,31,00,48,8.60
2013,03,31,00,49,8.60
2013,03,31,00,50,8.60
2013,03,31,00,52,8.60
2013,03,31,00,53,8.50
2013,03,31,00,54,8.40
2013,03,31,00,55,8.40
2013,03,31,00,56,8.30
2013,03,31,00,57,8.30
2013,03,31,00,58,8.20
2013,03,31,00,59,8.20
2013,03,31,01,00,8.20
2013,03,31,01,01,8.10
2013,03,31,01,02,8.10
2013,03,31,01,03,8.10
2013,03,31,01,04,8.10
2013,03,31,01,05,8.10
2013,03,31,01,06,8.20
2013,03,31,01,07,8.20
2013,03,31,01,08,8.20
2013,03,31,01,09,8.20
2013,03,31,01,10,8.20
2013,03,31,01,11,8.20
2013,03,31,01,12,8.10
2013,03,31,01,13,8.10
2013,03,31,01,14,8.10
2013,03,31,01,15,8.00
2013,03,31,01,17,7.90
2013,03,31,01,18,7.80
2013,03,31,01,19,7.80
2013,03,31,01,20,7.80
2013,03,31,01,22,7.80
2013,03,31,01,23,7.80
2013,03,31,01,24,7.80
2013,03,31,01,25,7.80
2013,03,31,01,26,7.80
2013,03,31,01,27,7.80
2013,03,31,01,28,7.80
2013,03,31,01,29,7.90
2013,03,31,01,30,7.90
2013,03,31,01,32,7.90
2013,03,31,01,33,7.90
2013,03,31,01,34,7.80
2013,03,31,01,35,7.80
2013,03,31,01,37,7.80
2013,03,31,01,38,7.70
2013,03,31,01,39,7.70
2013,03,31,01,40,7.60
2013,03,31,01,41,7.60
2013,03,31,01,42,7.60
2013,03,31,01,43,7.50
2013,03,31,01,44,7.40
2013,03,31,01,45,7.40
2013,03,31,01,46,7.30
2013,03,31,01,48,7.30
2013,03,31,01,49,7.20
2013,03,31,01,50,7.20
2013,03,31,01,51,7.20
2013,03,31,01,52,7.20
2013,03,31,01,53,7.20
2013,03,31,01,54,7.20
2013,03,31,01,55,7.20
2013,03,31,01,56,7.10
2013,03,31,01,58,7.10
2013,03,31,01,59,7.10
2013,03,31,02,00,7.10
2013,03,31,02,01,7.10
2013,03,31,02,02,7.10
2013,03,31,02,03,7.10
2013,03,31,02,05,7.10
2013,03,31,02,06,7.10
2013,03,31,02,07,7.20
2013,03,31,02,08,7.20
2013,03,31,02,09,7.20
2013,03,31,02,11,7.20
2013,03,31,02,12,7.20
2013,03,31,02,13,7.10
2013,03,31,02,14,7.10
2013,03,31,02,15,7.10
2013,03,31,02,17,7.10
2013,03,31,02,18,7.10
2013,03,31,02,19,7.00
2013,03,31,02,20,7.00
2013,03,31,02,21,7.00
2013,03,31,02,22,6.90
2013,03,31,02,23,6.90
2013,03,31,02,24,6.90
2013,03,31,02,25,6.90
2013,03,31,02,27,6.90
2013,03,31,02,28,6.90
2013,03,31,02,29,6.80
2013,03,31,02,30,6.80
2013,03,31,02,31,6.80
2013,03,31,02,33,6.80
2013,03,31,02,34,6.80
2013,03,31,02,35,6.70
2013,03,31,02,36,6.70
2013,03,31,02,37,6.70
2013,03,31,02,38,6.70
2013,03,31,02,39,6.70
2013,03,31,02,40,6.70
2013,03,31,02,41,6.70
2013,03,31,02,43,6.60
2013,03,31,02,44,6.70
2013,03,31,02,45,6.60
2013,03,31,02,46,6.60
2013,03,31,02,47,6.60
2013,03,31,02,48,6.60
2013,03,31,02,49,6.60
2013,03,31,02,50,6.60
2013,03,31,02,51,6.60
2013,03,31,02,53,6.60
2013,03,31,02,54,6.60
2013,03,31,02,55,6.70
2013,03,31,02,56,6.70
2013,03,31,02,57,6.70
2013,03,31,02,59,6.70
2013,03,31,03,00,6.70
2013,03,31,03,01,6.80
2013,03,31,03,02,6.80
2013,03,31,03,03,6.80
2013,03,31,03,05,6.80
2013,03,31,03,06,6.80
2013,03,31,03,07,6.80
2013,03,31,03,08,6.80
2013,03,31,03,09,6.80
2013,03,31,03,10,6.80
2013,03,31,03,11,6.80
2013,03,31,03,12,6.80
2013,03,31,03,13,6.80
2013,03,31,03,15,6.70
2013,03,31,03,16,6.70
2013,03,31,03,17,6.70
2013,03,31,03,18,6.70
2013,03,31,03,20,6.70
2013,03,31,03,21,6.70
2013,03,31,03,22,6.70
2013,03,31,03,24,6.70
2013,03,31,03,25,6.80
2013,03,31,03,26,6.90
2013,03,31,03,28,7.10
2013,03,31,03,29,7.10
2013,03,31,03,30,7.20
2013,03,31,03,31,7.30
2013,03,31,03,32,7.40
2013,03,31,03,34,7.50
2013,03,31,03,35,7.60
2013,03,31,03,36,7.70
2013,03,31,03,37,7.80
2013,03,31,03,38,7.90
2013,03,31,03,39,7.90
2013,03,31,03,40,8.00
2013,03,31,03,41,8.00
2013,03,31,03,42,8.00
2013,03,31,03,43,8.00
2013,03,31,03,44,8.10
2013,03,31,03,45,8.10
2013,03,31,03,46,8.10
2013,03,31,03,47,8.10
2013,03,31,03,48,8.10
2013,03,31,03,49,8.10
2013,03,31,03,50,8.20
2013,03,31,03,51,8.20
2013,03,31,03,52,8.20
2013,03,31,03,54,8.20
2013,03,31,03,55,8.30
2013,03,31,03,56,8.30
2013,03,31,03,57,8.40
2013,03,31,03,58,8.40
2013,03,31,03,59,8.40
2013,03,31,04,01,8.60
2013,03,31,04,02,8.60
2013,03,31,04,03,8.60
2013,03,31,04,04,8.60
2013,03,31,04,06,8.60
2013,03,31,04,07,8.60
2013,03,31,04,08,8.80
2013,03,31,04,09,8.80
2013,03,31,04,11,8.80
2013,03,31,04,12,8.80
2013,03,31,04,13,8.90
2013,03,31,04,14,8.90
2013,03,31,04,16,8.90
2013,03,31,04,17,8.90
2013,03,31,04,18,9.00
2013,03,31,04,19,9.00
2013,03,31,04,21,9.10
2013,03,31,04,22,9.10
2013,03,31,04,23,9.10
2013,03,31,04,25,9.10
2013,03,31,04,26,9.10
2013,03,31,04,27,9.10
2013,03,31,04,28,9.10
2013,03,31,04,29,9.10
2013,03,31,04,30,9.10
2013,03,31,04,32,9.10
2013,03,31,04,33,9.10
2013,03,31,04,34,9.10
2013,03,31,04,35,9.10
2013,03,31,04,36,9.10
2013,03,31,04,37,9.10
2013,03,31,04,38,9.00
2013,03,31,04,39,9.00
2013,03,31,04,40,9.00
2013,03,31,04,41,9.00
2013,03,31,04,42,9.00
2013,03,31,04,43,8.90
2013,03,31,04,44,8.90
2013,03,31,04,46,8.90
2013,03,31,04,47,8.90
2013,03,31,04,48,8.90
2013,03,31,04,49,8.90
2013,03,31,04,51,8.80
2013,03,31,04,52,8.90
2013,03,31,04,53,8.90
2013,03,31,04,54,8.90
2013,03,31,04,56,8.90
2013,03,31,04,57,8.90
2013,03,31,04,58,8.90
2013,03,31,04,59,8.90
2013,03,31,05,01,8.90
2013,03,31,05,02,8.90
2013,03,31,05,03,8.90
2013,03,31,05,06,8.90
2013,03,31,05,07,8.90
2013,03,31,05,08,8.90
2013,03,31,05,09,8.90
2013,03,31,05,10,9.00
2013,03,31,05,11,8.90
2013,03,31,05,12,8.90
2013,03,31,05,13,8.90
2013,03,31,05,14,8.90
2013,03,31,05,15,8.90
2013,03,31,05,16,8.90
2013,03,31,05,17,8.90
2013,03,31,05,18,8.90
2013,03,31,05,20,8.90
2013,03,31,05,21,8.90
2013,03,31,05,22,8.90
2013,03,31,05,23,8.90
2013,03,31,05,24,8.90
2013,03,31,05,25,8.90
2013,03,31,05,26,8.90
2013,03,31,05,27,8.90
2013,03,31,05,28,8.90
2013,03,31,05,30,8.90
2013,03,31,05,31,8.80
2013,03,31,05,32,8.80
2013,03,31,05,33,8.80
2013,03,31,05,35,8.80
2013,03,31,05,36,8.80
2013,03,31,05,37,8.80
2013,03,31,05,38,8.80
2013,03,31,05,40,8.80
2013,03,31,05,41,8.80
2013,03,31,05,42,8.80
2013,03,31,05,43,8.70
2013,03,31,05,44,8.70
2013,03,31,05,45,8.70
2013,03,31,05,46,8.70
2013,03,31,05,47,8.60
2013,03,31,05,48,8.60
2013,03,31,05,50,8.60
2013,03,31,05,51,8.60
2013,03,31,05,52,8.50
2013,03,31,05,53,8.50
2013,03,31,05,54,8.40
2013,03,31,05,55,8.40
2013,03,31,05,56,8.40
2013,03,31,05,57,8.40
2013,03,31,05,58,8.40
2013,03,31,05,59,8.40
2013,03,31,06,01,8.40
2013,03,31,06,02,8.40
2013,03,31,06,04,8.40
2013,03,31,06,05,8.50
2013,03,31,06,06,8.50
2013,03,31,06,07,8.60
2013,03,31,06,09,8.60
2013,03,31,06,10,8.60
2013,03,31,06,11,8.60
2013,03,31,06,12,8.60
2013,03,31,06,13,8.60
2013,03,31,06,14,8.60
2013,03,31,06,15,8.60
2013,03,31,06,16,8.60
2013,03,31,06,17,8.60
2013,03,31,06,19,8.60
2013,03,31,06,20,8.60
2013,03,31,06,21,8.70
2013,03,31,06,22,8.70
2013,03,31,06,23,8.70
2013,03,31,06,25,8.60
2013,03,31,06,26,8.60
2013,03,31,06,27,8.60
2013,03,31,06,29,8.60
2013,03,31,06,31,8.60
2013,03,31,06,32,8.60
2013,03,31,06,33,8.70
2013,03,31,06,34,8.70
2013,03,31,06,36,8.70
2013,03,31,06,37,8.80
2013,03,31,06,38,8.80
2013,03,31,06,40,8.80
2013,03,31,06,41,8.90
2013,03,31,06,42,8.90
2013,03,31,06,43,8.90
2013,03,31,06,44,8.90
2013,03,31,06,45,8.90
2013,03,31,06,46,8.90
2013,03,31,06,47,8.90
2013,03,31,06,48,9.00
2013,03,31,06,50,9.00
2013,03,31,06,51,8.90
2013,03,31,06,52,8.90
2013,03,31,06,53,8.90
2013,03,31,06,55,8.90
2013,03,31,06,56,8.90
2013,03,31,06,57,8.90
2013,03,31,06,58,8.90
2013,03,31,06,59,8.80
2013,03,31,07,01,8.80
2013,03,31,07,02,8.70
2013,03,31,07,04,8.70
2013,03,31,07,05,8.60
2013,03,31,07,06,8.50
2013,03,31,07,07,8.50
2013,03,31,07,08,8.40
2013,03,31,07,09,8.40
2013,03,31,07,10,8.40
2013,03,31,07,11,8.30
2013,03,31,07,12,8.30
2013,03,31,07,13,8.30
2013,03,31,07,14,8.30
2013,03,31,07,16,8.30
2013,03,31,07,17,8.30
2013,03,31,07,18,8.30
2013,03,31,07,19,8.20
2013,03,31,07,20,8.20
2013,03,31,07,21,8.20
2013,03,31,07,22,8.20
2013,03,31,07,24,8.20
2013,03,31,07,25,8.10
2013,03,31,07,26,8.10
2013,03,31,07,27,8.00
2013,03,31,07,28,7.90
2013,03,31,07,29,7.90
2013,03,31,07,30,7.90
2013,03,31,07,31,7.90
2013,03,31,07,32,7.90
2013,03,31,07,33,7.90
2013,03,31,07,34,7.90
2013,03,31,07,35,7.90
2013,03,31,07,36,8.00
2013,03,31,07,38,8.10
2013,03,31,07,39,8.10
2013,03,31,07,40,8.10
2013,03,31,07,41,8.20
2013,03,31,07,43,8.20
2013,03,31,07,44,8.20
2013,03,31,07,45,8.20
2013,03,31,07,46,8.20
2013,03,31,07,48,8.20
2013,03,31,07,49,8.20
2013,03,31,07,50,8.20
2013,03,31,07,52,8.10
2013,03,31,07,53,8.10
2013,03,31,07,54,8.10
2013,03,31,07,56,8.10
2013,03,31,07,57,8.10
2013,03,31,07,58,8.10
2013,03,31,08,00,8.10
2013,03,31,08,01,8.10
2013,03,31,08,02,8.10
2013,03,31,08,03,8.10
2013,03,31,08,04,8.10
2013,03,31,08,05,8.10
2013,03,31,08,06,8.10
2013,03,31,08,07,8.10
2013,03,31,08,09,8.10
2013,03,31,08,10,8.10
2013,03,31,08,11,8.10
2013,03,31,08,12,8.20
2013,03,31,08,13,8.20
2013,03,31,08,14,8.20
2013,03,31,08,15,8.30
2013,03,31,08,16,8.30
2013,03,31,08,17,8.30
2013,03,31,08,19,8.40
2013,03,31,08,20,8.40
2013,03,31,08,21,8.50
2013,03,31,08,23,8.60
2013,03,31,08,24,8.70
2013,03,31,08,25,8.70
2013,03,31,08,26,8.80
2013,03,31,08,28,8.90
2013,03,31,08,29,9.00
2013,03,31,08,30,9.10
2013,03,31,08,31,9.20
2013,03,31,08,32,9.30
2013,03,31,08,34,9.40
2013,03,31,08,35,9.50
2013,03,31,08,36,9.60
2013,03,31,08,38,9.70
2013,03,31,08,39,9.80
2013,03,31,08,40,9.80
2013,03,31,08,41,9.90
2013,03,31,08,42,9.90
2013,03,31,08,44,10.00
2013,03,31,08,45,10.10
2013,03,31,08,46,10.10
2013,03,31,08,47,10.10
2013,03,31,08,49,10.10
2013,03,31,08,50,10.20
2013,03,31,08,51,10.20
2013,03,31,08,52,10.20
2013,03,31,08,54,10.20
2013,03,31,08,55,10.20
2013,03,31,08,56,10.20
2013,03,31,08,57,10.30
2013,03,31,08,58,10.30
2013,03,31,08,59,10.30
2013,03,31,09,00,10.30
2013,03,31,09,01,10.30
2013,03,31,09,02,10.40
2013,03,31,09,03,10.40
2013,03,31,09,04,10.40
2013,03,31,09,05,10.40
2013,03,31,09,06,10.40
2013,03,31,09,07,10.40
2013,03,31,09,08,10.50
2013,03,31,09,09,10.50
2013,03,31,09,10,10.50
2013,03,31,09,11,10.50
2013,03,31,09,13,10.60
2013,03,31,09,14,10.60
2013,03,31,09,15,10.60
2013,03,31,09,16,10.60
2013,03,31,09,17,10.70
2013,03,31,09,18,10.70
2013,03,31,09,19,10.70
2013,03,31,09,20,10.70
2013,03,31,09,21,10.70
2013,03,31,09,23,10.70
2013,03,31,09,24,10.70
2013,03,31,09,25,10.80
2013,03,31,09,26,10.80
2013,03,31,09,28,10.80
2013,03,31,09,29,10.80
2013,03,31,09,30,10.80
2013,03,31,09,31,10.80
2013,03,31,09,32,10.80
2013,03,31,09,33,10.80
2013,03,31,09,34,10.80
2013,03,31,09,35,10.90
2013,03,31,09,37,10.90
2013,03,31,09,38,10.90
2013,03,31,09,39,10.90
2013,03,31,09,40,10.90
2013,03,31,09,42,11.00
2013,03,31,09,43,11.10
2013,03,31,09,44,11.10
2013,03,31,09,45,11.20
2013,03,31,09,47,11.20
2013,03,31,09,48,11.30
2013,03,31,09,49,11.30
2013,03,31,09,50,11.30
2013,03,31,09,51,11.30
2013,03,31,09,52,11.30
2013,03,31,09,53,11.30
2013,03,31,09,54,11.30
2013,03,31,09,55,11.30
2013,03,31,09,56,11.30
2013,03,31,09,57,11.40
2013,03,31,09,58,11.40
2013,03,31,09,59,11.40
2013,03,31,10,00,11.40
2013,03,31,10,02,11.40
2013,03,31,10,03,11.40
2013,03,31,10,04,11.40
2013,03,31,10,05,11.50
2013,03,31,10,07,11.50
2013,03,31,10,08,11.60
2013,03,31,10,09,11.60
2013,03,31,10,10,11.60
2013,03,31,10,12,11.60
2013,03,31,10,13,11.60
2013,03,31,10,14,11.70
2013,03,31,10,15,11.70
2013,03,31,10,16,11.70
2013,03,31,10,17,11.70
2013,03,31,10,18,11.80
2013,03,31,10,19,11.80
2013,03,31,10,20,11.80
2013,03,31,10,21,11.80
2013,03,31,10,23,11.80
2013,03,31,10,24,11.80
2013,03,31,10,25,11.80
2013,03,31,10,26,11.90
2013,03,31,10,28,11.90
2013,03,31,10,29,11.90
2013,03,31,10,30,12.00
2013,03,31,10,31,12.10
2013,03,31,10,32,12.10
2013,03,31,10,33,12.10
2013,03,31,10,34,12.10
2013,03,31,10,35,12.10
2013,03,31,10,36,12.10
2013,03,31,10,37,12.10
2013,03,31,10,38,12.10
2013,03,31,10,39,12.10
2013,03,31,10,40,12.10
2013,03,31,10,42,12.10
2013,03,31,10,43,12.20
2013,03,31,10,44,12.20
2013,03,31,10,46,12.30
2013,03,31,10,47,12.30
2013,03,31,10,48,12.40
2013,03,31,10,49,12.40
2013,03,31,10,51,12.40
2013,03,31,10,52,12.40
2013,03,31,10,53,12.40
2013,03,31,10,54,12.40
2013,03,31,10,56,12.50
2013,03,31,10,57,12.60
2013,03,31,10,58,12.60
2013,03,31,10,59,12.60
2013,03,31,11,01,12.70
2013,03,31,11,02,12.70
2013,03,31,11,03,12.70
2013,03,31,11,05,12.80
2013,03,31,11,06,12.70
2013,03,31,11,07,12.70
2013,03,31,11,08,12.70
2013,03,31,11,10,12.70
2013,03,31,11,11,12.70
2013,03,31,11,12,12.70
2013,03,31,11,13,12.80
2013,03,31,11,14,12.80
2013,03,31,11,15,12.80
2013,03,31,11,16,12.80
2013,03,31,11,17,12.90
2013,03,31,11,18,12.90
2013,03,31,11,19,12.80
2013,03,31,11,20,12.90
2013,03,31,11,21,12.90
2013,03,31,11,22,12.90
2013,03,31,11,23,12.90
2013,03,31,11,25,13.00
2013,03,31,11,26,13.10
2013,03,31,11,27,13.10
2013,03,31,11,28,13.10
2013,03,31,11,29,13.10
2013,03,31,11,31,13.10
2013,03,31,11,32,13.20
2013,03,31,11,33,13.20
2013,03,31,11,35,13.20
2013,03,31,11,36,13.30
2013,03,31,11,37,13.30
2013,03,31,11,38,13.30
2013,03,31,11,39,13.30
2013,03,31,11,41,13.30
2013,03,31,11,42,13.30
2013,03,31,11,43,13.30
2013,03,31,11,44,13.30
2013,03,31,11,46,13.30
2013,03,31,11,47,13.40
2013,03,31,11,48,13.50
2013,03,31,11,49,13.60
2013,03,31,11,51,13.60
2013,03,31,11,52,13.60
2013,03,31,11,53,13.70
2013,03,31,11,54,13.70
2013,03,31,11,56,13.70
2013,03,31,11,57,13.80
2013,03,31,11,58,13.80
2013,03,31,12,00,13.90
2013,03,31,12,01,13.90
2013,03,31,12,02,14.00
2013,03,31,12,03,14.10
2013,03,31,12,05,14.10
2013,03,31,12,06,14.10
2013,03,31,12,07,14.20
2013,03,31,12,08,14.20
2013,03,31,12,10,14.20
2013,03,31,12,11,14.20
2013,03,31,12,12,14.20
2013,03,31,12,14,14.20
2013,03,31,12,15,14.20
2013,03,31,12,16,14.30
2013,03,31,12,17,14.40
2013,03,31,12,18,14.40
2013,03,31,12,20,14.40
2013,03,31,12,21,14.40
2013,03,31,12,22,14.40
2013,03,31,12,23,14.40
2013,03,31,12,25,14.40
2013,03,31,12,26,14.40
2013,03,31,12,27,14.50
2013,03,31,12,29,14.50
2013,03,31,12,30,14.60
2013,03,31,12,31,14.60
2013,03,31,12,32,14.60
2013,03,31,12,33,14.60
2013,03,31,12,35,14.60
2013,03,31,12,36,14.70
2013,03,31,12,37,14.80
2013,03,31,12,38,14.80
2013,03,31,12,40,14.80
2013,03,31,12,41,14.80
2013,03,31,12,42,14.90
2013,03,31,12,43,14.90
2013,03,31,12,45,15.00
2013,03,31,12,46,15.00
2013,03,31,12,47,15.10
2013,03,31,12,48,15.20
2013,03,31,12,49,15.20
2013,03,31,12,50,15.30
2013,03,31,12,51,15.30
2013,03,31,12,52,15.30
2013,03,31,12,53,15.30
2013,03,31,12,55,15.30
2013,03,31,12,56,15.30
2013,03,31,12,57,15.40
2013,03,31,12,59,15.40
2013,03,31,13,00,15.40
2013,03,31,13,01,15.50
2013,03,31,13,03,15.50
2013,03,31,13,04,15.60
2013,03,31,13,05,15.60
2013,03,31,13,06,15.60
2013,03,31,13,07,15.60
2013,03,31,13,09,15.60
2013,03,31,13,10,15.60
2013,03,31,13,11,15.70
2013,03,31,13,12,15.70
2013,03,31,13,13,15.70
2013,03,31,13,15,15.70
2013,03,31,13,16,15.70
2013,03,31,13,17,15.70
2013,03,31,13,18,15.70
2013,03,31,13,20,15.70
2013,03,31,13,21,15.70
2013,03,31,13,22,15.60
2013,03,31,13,23,15.70
2013,03,31,13,25,15.60
2013,03,31,13,26,15.60
2013,03,31,13,27,15.60
2013,03,31,13,28,15.60
2013,03,31,13,30,15.60
2013,03,31,13,31,15.60
2013,03,31,13,32,15.50
2013,03,31,13,34,15.40
2013,03,31,13,35,15.40
2013,03,31,13,36,15.40
2013,03,31,13,37,15.30
2013,03,31,13,38,15.40
2013,03,31,13,39,15.40
2013,03,31,13,40,15.50
2013,03,31,13,41,15.60
2013,03,31,13,43,15.60
2013,03,31,13,44,15.70
2013,03,31,13,45,15.70
2013,03,31,13,46,15.70
2013,03,31,13,47,15.80
2013,03,31,13,48,15.80
2013,03,31,13,49,15.80
2013,03,31,13,50,15.80
2013,03,31,13,51,15.80
2013,03,31,13,52,15.80
2013,03,31,13,53,15.80
2013,03,31,13,54,15.80
2013,03,31,13,55,15.80
2013,03,31,13,56,15.90
2013,03,31,13,57,15.90
2013,03,31,13,58,16.10
2013,03,31,13,59,16.10
2013,03,31,14,00,16.10
2013,03,31,14,01,16.10
2013,03,31,14,02,16.20
2013,03,31,14,03,16.20
2013,03,31,14,05,16.30
2013,03,31,14,06,16.30
2013,03,31,14,07,16.30
2013,03,31,14,08,16.20
2013,03,31,14,09,16.20
2013,03,31,14,10,16.20
2013,03,31,14,11,16.20
2013,03,31,14,12,16.10
2013,03,31,14,13,16.20
2013,03,31,14,15,16.10
2013,03,31,14,16,16.10
2013,03,31,14,17,16.20
2013,03,31,14,18,16.20
2013,03,31,14,19,16.20
2013,03,31,14,21,16.30
2013,03,31,14,22,16.30
2013,03,31,14,23,16.40
2013,03,31,14,24,16.40
2013,03,31,14,25,16.40
2013,03,31,14,27,16.40
2013,03,31,14,28,16.40
2013,03,31,14,29,16.40
2013,03,31,14,31,16.40
2013,03,31,14,32,16.30
2013,03,31,14,33,16.30
2013,03,31,14,34,16.40
2013,03,31,14,36,16.40
2013,03,31,14,37,16.40
2013,03,31,14,38,16.40
2013,03,31,14,40,16.50
2013,03,31,14,41,16.60
2013,03,31,14,42,16.70
2013,03,31,14,43,16.80
2013,03,31,14,44,16.70
2013,03,31,14,45,16.70
2013,03,31,14,47,16.70
2013,03,31,14,48,16.70
2013,03,31,14,49,16.70
2013,03,31,14,51,16.80
2013,03,31,14,52,16.80
2013,03,31,14,53,16.90
2013,03,31,14,54,16.90
2013,03,31,14,56,16.90
2013,03,31,14,57,17.10
2013,03,31,14,58,17.20
2013,03,31,14,59,17.20
2013,03,31,15,01,17.20
2013,03,31,15,02,17.20
2013,03,31,15,03,17.20
2013,03,31,15,05,17.20
2013,03,31,15,06,17.20
2013,03,31,15,07,17.20
2013,03,31,15,08,17.20
2013,03,31,15,09,17.20
2013,03,31,15,11,17.20
2013,03,31,15,12,17.30
2013,03,31,15,13,17.30
2013,03,31,15,14,17.40
2013,03,31,15,16,17.40
2013,03,31,15,17,17.50
2013,03,31,15,18,17.50
2013,03,31,15,20,17.50
2013,03,31,15,21,17.40
2013,03,31,15,22,17.40
2013,03,31,15,23,17.40
2013,03,31,15,24,17.40
2013,03,31,15,25,17.30
2013,03,31,15,26,17.40
2013,03,31,15,27,17.50
2013,03,31,15,29,17.60
2013,03,31,15,31,17.80
2013,03,31,15,32,17.90
2013,03,31,15,33,18.10
2013,03,31,15,35,18.10
2013,03,31,15,36,18.20
2013,03,31,15,37,18.20
2013,03,31,15,39,18.10
2013,03,31,15,40,18.10
2013,03,31,15,41,18.10
2013,03,31,15,42,18.10
2013,03,31,15,44,18.20
2013,03,31,15,45,18.10
2013,03,31,15,46,18.00
2013,03,31,15,47,18.00
2013,03,31,15,48,18.00
2013,03,31,15,50,18.00
2013,03,31,15,51,17.90
2013,03,31,15,53,18.00
2013,03,31,15,54,18.10
2013,03,31,15,55,18.10
2013,03,31,15,56,18.20
2013,03,31,15,57,18.20
2013,03,31,15,58,18.20
2013,03,31,15,59,18.20
2013,03,31,16,01,18.20
2013,03,31,16,02,18.20
2013,03,31,16,04,18.20
2013,03,31,16,05,18.30
2013,03,31,16,06,18.30
2013,03,31,16,07,18.30
2013,03,31,16,09,18.40
2013,03,31,16,10,18.40
2013,03,31,16,11,18.40
2013,03,31,16,12,18.30
2013,03,31,16,14,18.30
2013,03,31,16,15,18.20
2013,03,31,16,16,18.30
2013,03,31,16,17,18.30
2013,03,31,16,19,18.20
2013,03,31,16,20,18.10
2013,03,31,16,21,18.20
2013,03,31,16,23,18.20
2013,03,31,16,24,18.20
2013,03,31,16,25,18.10
2013,03,31,16,27,18.10
2013,03,31,16,28,18.10
2013,03,31,16,29,18.10
2013,03,31,16,30,18.20
2013,03,31,16,32,18.20
2013,03,31,16,33,18.30
2013,03,31,16,34,18.30
2013,03,31,16,35,18.20
2013,03,31,16,37,18.10
2013,03,31,16,38,18.20
2013,03,31,16,39,18.20
2013,03,31,16,40,18.10
2013,03,31,16,42,18.20
2013,03,31,16,43,18.30
2013,03,31,16,44,18.30
2013,03,31,16,45,18.40
2013,03,31,16,46,18.50
2013,03,31,16,47,18.50
2013,03,31,16,49,18.60
2013,03,31,16,50,18.60
2013,03,31,16,51,18.60
2013,03,31,16,52,18.60
2013,03,31,16,53,18.40
2013,03,31,16,54,18.40
2013,03,31,16,55,18.30
2013,03,31,16,56,18.30
2013,03,31,16,58,18.30
2013,03,31,16,59,18.30
2013,03,31,17,00,18.40
2013,03,31,17,01,18.50
2013,03,31,17,02,18.60
2013,03,31,17,04,18.70
2013,03,31,17,05,18.70
2013,03,31,17,06,18.70
2013,03,31,17,07,18.70
2013,03,31,17,09,18.70
2013,03,31,17,10,18.70
2013,03,31,17,11,18.80
2013,03,31,17,12,18.80
2013,03,31,17,13,18.80
2013,03,31,17,14,18.80
2013,03,31,17,16,18.80
2013,03,31,17,17,18.90
2013,03,31,17,18,18.90
2013,03,31,17,19,18.90
2013,03,31,17,21,18.90
2013,03,31,17,22,18.90
2013,03,31,17,23,18.80
2013,03,31,17,24,18.80
2013,03,31,17,26,18.80
2013,03,31,17,27,18.80
2013,03,31,17,28,18.90
2013,03,31,17,30,18.90
2013,03,31,17,31,19.00
2013,03,31,17,32,19.00
2013,03,31,17,34,18.90
2013,03,31,17,35,18.90
2013,03,31,17,36,18.80
2013,03,31,17,37,18.70
2013,03,31,17,38,18.70
2013,03,31,17,39,18.60
2013,03,31,17,40,18.50
2013,03,31,17,41,18.40
2013,03,31,17,42,18.40
2013,03,31,17,43,18.40
2013,03,31,17,44,18.40
2013,03,31,17,45,18.50
2013,03,31,17,46,18.60
2013,03,31,17,48,18.60
2013,03,31,17,49,18.60
2013,03,31,17,50,18.60
2013,03,31,17,52,18.60
2013,03,31,17,53,18.40
2013,03,31,17,54,18.40
2013,03,31,17,55,18.40
2013,03,31,17,57,18.30
2013,03,31,17,58,18.30
2013,03,31,17,59,18.30
2013,03,31,18,00,18.30
2013,03,31,18,01,18.30
2013,03,31,18,02,18.30
2013,03,31,18,03,18.20
2013,03,31,18,04,18.20
2013,03,31,18,05,18.20
2013,03,31,18,06,18.10
2013,03,31,18,08,17.90
2013,03,31,18,09,17.80
2013,03,31,18,10,17.70
2013,03,31,18,11,17.70
2013,03,31,18,13,17.70
2013,03,31,18,14,17.70
2013,03,31,18,15,17.70
2013,03,31,18,16,17.70
2013,03,31,18,17,17.60
2013,03,31,18,18,17.60
2013,03,31,18,19,17.60
2013,03,31,18,20,17.60
2013,03,31,18,21,17.60
2013,03,31,18,22,17.60
2013,03,31,18,24,17.70
2013,03,31,18,25,17.70
2013,03,31,18,26,17.70
2013,03,31,18,28,17.70
2013,03,31,18,29,17.70
2013,03,31,18,30,17.70
2013,03,31,18,31,17.70
2013,03,31,18,32,17.70
2013,03,31,18,33,17.70
2013,03,31,18,34,17.70
2013,03,31,18,35,17.70
2013,03,31,18,36,17.70
2013,03,31,18,37,17.70
2013,03,31,18,38,17.70
2013,03,31,18,39,17.70
2013,03,31,18,40,17.70
2013,03,31,18,41,17.70
2013,03,31,18,43,17.70
2013,03,31,18,44,17.70
2013,03,31,18,45,17.70
2013,03,31,18,46,17.60
2013,03,31,18,48,17.60
2013,03,31,18,49,17.60
2013,03,31,18,50,17.60
2013,03,31,18,51,17.50
2013,03,31,18,53,17.50
2013,03,31,18,54,17.40
2013,03,31,18,55,17.40
2013,03,31,18,56,17.40
2013,03,31,18,58,17.30
2013,03,31,18,59,17.30
2013,03,31,19,00,17.20
2013,03,31,19,01,17.20
2013,03,31,19,03,17.20
2013,03,31,19,04,17.20
2013,03,31,19,05,17.20
2013,03,31,19,06,17.20
2013,03,31,19,07,17.20
2013,03,31,19,08,17.20
2013,03,31,19,09,17.20
2013,03,31,19,10,17.20
2013,03,31,19,11,17.20
2013,03,31,19,13,17.20
2013,03,31,19,14,17.30
2013,03,31,19,15,17.30
2013,03,31,19,16,17.30
2013,03,31,19,18,17.30
2013,03,31,19,19,17.40
2013,03,31,19,20,17.40
2013,03,31,19,21,17.30
2013,03,31,19,22,17.20
2013,03,31,19,23,17.10
2013,03,31,19,24,16.90
2013,03,31,19,25,16.80
2013,03,31,19,26,16.60
2013,03,31,19,27,16.60
2013,03,31,19,28,16.40
2013,03,31,19,29,16.20
2013,03,31,19,30,16.00
2013,03,31,19,31,15.90
2013,03,31,19,32,15.80
2013,03,31,19,33,15.60
2013,03,31,19,34,15.40
2013,03,31,19,35,15.30
2013,03,31,19,37,15.10
2013,03,31,19,38,14.90
2013,03,31,19,39,14.70
2013,03,31,19,40,14.60
2013,03,31,19,41,14.40
2013,03,31,19,43,14.30
2013,03,31,19,44,14.20
2013,03,31,19,45,14.10
2013,03,31,19,46,14.00
2013,03,31,19,48,13.90
2013,03,31,19,49,13.80
2013,03,31,19,50,13.70
2013,03,31,19,51,13.70
2013,03,31,19,53,13.60
2013,03,31,19,54,13.50
2013,03,31,19,55,13.40
2013,03,31,19,56,13.40
2013,03,31,19,58,13.30
2013,03,31,19,59,13.30
2013,03,31,20,00,13.20
2013,03,31,20,01,13.20
2013,03,31,20,02,13.20
2013,03,31,20,03,13.20
2013,03,31,20,04,13.10
2013,03,31,20,05,13.10
2013,03,31,20,06,13.10
2013,03,31,20,07,13.00
2013,03,31,20,09,12.90
2013,03,31,20,10,12.90
2013,03,31,20,11,12.90
2013,03,31,20,12,12.80
2013,03,31,20,14,12.80
2013,03,31,20,15,12.80
2013,03,31,20,16,12.70
2013,03,31,20,17,12.70
2013,03,31,20,19,12.70
2013,03,31,20,20,12.70
2013,03,31,20,21,12.60
2013,03,31,20,22,12.60
2013,03,31,20,24,12.60
2013,03,31,20,25,12.60
2013,03,31,20,26,12.60
2013,03,31,20,27,12.60
2013,03,31,20,29,12.50
2013,03,31,20,30,12.50
2013,03,31,20,31,12.50
2013,03,31,20,32,12.50
2013,03,31,20,34,12.50
2013,03,31,20,35,12.40
2013,03,31,20,36,12.40
2013,03,31,20,38,12.40
2013,03,31,20,39,12.40
2013,03,31,20,40,12.40
2013,03,31,20,41,12.40
2013,03,31,20,43,12.40
2013,03,31,20,44,12.40
2013,03,31,20,45,12.40
2013,03,31,20,46,12.40
2013,03,31,20,48,12.40
2013,03,31,20,49,12.40
2013,03,31,20,50,12.40